Lid_Strength_Index
4 4 4 4 4 4 4 4 4 4 4 3 3 3 2 2 2 4 7 5 3 -0 -2 4 5 6 6 9 7 6 11 13 12 12 10 8 7 5 4 6 5 4 4 3 2
4 4 4 4 4 4 4 5 4 4 4 3 3 2 2 2 5 6 3 -1 -2 -3 1 4 6 6 9 9 9 9 11 11 9 8 9 8 7 6 6 7 7 5 4 4 2
4 4 4 4 4 4 4 5 4 4 4 3 3 3 2 3 7 5 -2 -1 -2 -2 2 4 5 6 10 9 8 8 10 9 8 8 8 8 8 6 7 9 7 7 5 4 5
4 4 4 4 4 4 4 4 4 4 4 3 3 2 2 4 11 3 -2 -2 -2 -0 2 4 7 9 10 10 7 10 7 7 7 7 8 9 7 7 7 7 5 5 5 6 7
5 5 5 4 4 4 4 4 4 5 4 3 3 2 4 7 7 2 -1 -1 -0 1 4 7 8 9 10 9 7 8 7 6 6 6 7 8 9 6 8 6 6 5 5 6 7
5 5 5 5 4 4 4 4 4 5 5 4 3 3 5 10 3 -0 1 0 2 3 4 7 6 6 8 8 9 7 7 7 7 7 7 9 9 9 8 6 7 7 6 6 6
5 5 5 5 5 5 4 4 4 5 5 4 3 3 5 7 2 1 2 4 4 4 6 5 4 5 6 8 6 7 9 8 7 7 8 7 9 9 7 6 8 7 6 6 6
5 5 5 5 5 5 5 5 5 4 4 4 3 4 7 2 2 3 3 3 2 3 4 3 3 6 8 7 7 10 10 13 9 7 7 8 12 7 6 8 8 7 7 6 6
4 5 5 5 5 5 5 5 5 4 4 4 6 6 7 1 3 2 3 3 2 2 3 2 4 7 7 10 12 11 14 12 10 7 7 8 11 7 6 6 7 7 6 6 6
3 4 4 4 4 5 5 5 5 4 4 4 4 7 5 5 3 3 1 2 4 4 5 5 7 9 10 12 15 13 13 11 11 8 8 9 10 8 6 7 7 7 7 6 5
2 2 3 3 3 3 4 6 6 7 6 8 7 7 6 3 2 3 1 3 4 6 9 7 11 12 10 9 9 9 10 11 10 8 9 10 10 9 7 8 7 7 7 7 6
2 2 2 3 3 3 5 8 6 6 9 6 5 7 4 3 5 4 2 5 6 9 7 9 12 8 7 7 8 9 11 11 9 8 10 10 10 9 8 8 7 7 7 6 6
2 2 2 3 3 6 7 7 4 5 10 8 5 5 5 4 6 5 3 5 7 8 8 10 8 7 7 8 9 10 11 11 11 9 9 10 12 10 8 7 7 6 6 6 6
2 2 2 3 5 5 7 5 6 6 12 9 7 6 5 6 7 4 3 4 6 9 8 9 7 7 8 9 9 12 9 9 9 12 15 11 16 12 10 9 8 7 7 6 6
2 2 2 4 7 7 4 3 4 5 19 8 7 3 4 8 7 7 4 5 7 7 8 9 9 9 10 9 8 10 8 9 9 12 13 13 15 13 10 10 9 8 7 7 6
2 2 3 4 6 5 4 3 4 12 19 10 6 7 8 7 7 6 6 5 5 7 8 8 6 7 8 7 7 7 9 10 11 13 17 13 14 13 11 10 9 8 7 6 7
2 2 4 4 4 2 3 5 13 17 9 11 9 7 8 8 8 7 8 10 11 13 12 9 9 7 7 9 8 9 13 17 17 17 17 11 13 12 10 9 8 7 7 7 6
3 4 4 3 2 2 4 9 16 11 10 7 8 7 9 8 9 8 9 10 9 10 12 13 14 9 6 9 11 10 12 16 19 18 16 11 14 12 7 7 6 6 6 6 6
4 3 3 1 1 2 7 14 14 10 8 8 8 10 10 9 9 9 9 9 8 10 13 13 12 7 7 6 8 10 13 11 14 14 17 14 12 9 7 7 7 7 6 6 6
6 6 3 0 0 3 9 12 10 6 7 7 11 9 11 10 11 11 11 8 9 7 7 10 15 9 8 7 7 9 8 13 14 20 21 16 14 14 11 10 8 7 7 6 6
5 6 2 1 1 6 12 10 9 6 6 8 10 10 10 10 10 10 10 9 8 8 7 10 12 12 9 11 12 11 12 11 12 15 21 22 17 10 10 9 9 8 7 8 8
5 9 2 1 8 8 11 9 7 6 5 7 7 8 10 10 11 11 11 10 7 7 10 9 12 15 12 8 8 9 11 12 17 18 16 17 16 9 9 8 8 8 7 6 6
7 6 2 2 11 11 9 9 7 7 7 7 8 8 8 10 13 10 10 7 6 8 11 10 14 18 15 11 9 12 11 12 13 14 17 19 17 9 8 8 7 8 7 6 6
6 10 6 5 6 9 9 9 8 6 7 6 7 7 9 11 9 11 10 8 6 7 7 8 13 15 18 14 12 13 11 11 13 17 17 16 15 12 10 9 8 8 7 6 6
5 8 6 10 8 8 8 8 9 10 7 6 8 9 10 13 11 11 10 9 7 7 8 9 15 13 12 11 10 11 11 11 14 13 17 14 14 11 9 9 8 7 7 6 6
7 7 6 7 7 8 8 9 9 8 8 9 10 8 9 13 10 12 10 11 11 9 10 9 14 13 14 11 11 12 11 10 10 11 11 11 12 8 9 9 8 8 7 7 7
3 3 6 8 8 9 9 8 8 7 7 7 8 9 10 9 7 7 8 8 9 10 11 11 13 15 17 12 14 16 12 11 10 9 10 13 11 9 9 8 8 8 8 8 7